Weather in Labazy

Russia / Orenburg Oblast     52°36′18″N   52°10′15″E
temp.,
°C
wind,
m/s
gust,
m/s
humid.,
%
clouds,
%
prec.,
mm/h
press.,
hPa
HPBL,
m
4 march, thu
thu423:00−8wnw479292 0.4 1007129
02:00−9wnw5119437 0.0 1007240
05:00−12w479631 0.0 1009113
08:00−13wsw479646 0.0 100998
11:00−9sw6119254 0.0 1009327
14:00−4sw8149195 0.0 1008605
17:00−3sw10159197 0.1 1006910
20:00−1sw111895100 1.0 1004969
5 march, fri
fri523:000wsw111797100 2.3 10041027
02:00−1wsw91591100 0.3 1004923
05:00−2sw81688100 0.3 1004635
08:00−2sw91591100 0.1 1003578
11:00−1sw81496100 1.7 1003674
14:00+1sw915100100 1.2 1003748
17:000wsw61193100 1.5 1005705
20:00−2nnw3697100 0.5 1008201
6 march, sat
sat623:00−4nnw2497100 1.3 1011151
02:00−10nw239499 0.1 101221
05:00−13nw129584 0.1 101421
08:00−13wsw119390 0.0 101521
11:00−9sw228586 0.0 101679
14:00−6w128150 0.0 1015247
17:00−5w118675 0.0 1014251
20:00−7nnw2293100 0.0 101328
7 march, sun
sun723:00−8nnw4795100 0.1 1012236
02:00−12nnw5994100 0.0 1011223
05:00−16nnw499399 0.0 1012164
08:00−19nnw479684 0.0 1013120
11:00−17nw479342 0.0 1015207
14:00−13wnw35890 0.0 1016248
17:00−12sw35890 0.0 1015236
20:00−15ssw510900 0.0 1015178
8 march, mon
mon823:00−15ssw612949 0.0 1015233
02:00−12ssw7149599 0.1 1012348
05:00−8ssw9169199 0.1 1008653
08:00−6sw101792100 0.3 1006811
11:00−4sw101592100 0.9 1007935
14:00−3sw71090100 0.3 1008889
17:00−3ssw81394100 0.7 1007854
20:00−2ssw101694100 0.9 10041057